[[{"header":{"parameterUnit":"m.s-1","parameterCategory":1,"la1":30.2991,"la2":30.254,"lo1":-89.0895,"lo2":-89.0444,"dy":0.0017,"dx":0.0017,"nx":28,"ny":28,"refTime":"2024-09-29T09:00:00:Z","depth":0,"parameterNumber":2,"parameterNumberName":"U-component_of_WINDS"},"data":[0,0,0,0,0,0,0,0,0,0,0,0,0,0,0,0,0,0,0,0,0,0,0,0,0,0,0,0,0,0,0,0,0,0,0,0,0,0,0,0,0,0,0,0,0,0,0,0,0,0,0,0,0,0,0,0,0,0,1.0915,1.0916,0,1.104,1.1041,1.1043,1.1091,1.1091,1.109,1.109,1.1223,1.1226,1.123,0,0,0,0,0,0,0,0,0,0,0,0,0,1.0723,1.0727,1.0915,1.0916,1.0918,1.104,1.1041,1.1043,1.1091,1.1091,1.109,1.109,1.1221,1.1226,1.123,0,0,0,0,0,0,0,0,0,0,0,0,0,1.0823,1.0728,1.0914,1.0956,1.0961,1.1039,1.1041,1.1044,1.1091,1.1091,1.109,1.1089,1.122,1.1225,1.1231,1.1278,0,0,1.1249,1.1251,0,0,0,0,0,0,0,0,1.0818,1.083,1.0949,1.0954,1.0959,1.1049,1.1023,1.1122,1.1091,1.1042,1.109,1.1089,1.1166,1.1176,1.1201,1.1284,1.129,1.1249,1.1253,1.1255,1.1257,0,0,0,0,0,0,0,1.0811,1.0825,1.0964,1.095,1.0957,1.0971,1.0984,1.1042,1.1106,1.1046,1.105,1.1064,1.1168,1.1195,1.1204,1.1292,1.1249,1.1254,1.1258,1.126,1.1424,1.1425,0,0,0,0,0,0,1.0796,1.0819,1.096,1.0968,1.0885,1.0975,1.099,1.1021,1.1105,1.1117,1.1064,1.1066,1.1185,1.1197,1.1209,1.1271,1.1255,1.1261,1.1264,1.1423,1.1424,1.1425,0,0,0,0,0,0,1.0792,1.0808,1.0955,1.0895,1.0915,1.0979,1.1013,1.1024,1.105,1.1119,1.1131,1.1079,1.1185,1.1201,1.1261,1.1276,1.1263,1.1269,1.1422,1.1423,1.1424,1.1395,0,0,0,0,0,0,1.0786,1.0806,1.0823,1.0895,1.0918,1.1003,1.1014,1.1027,1.106,1.1063,1.1136,1.1147,1.1186,1.1252,1.1267,1.1284,1.1273,1.1421,1.1423,1.1424,1.1395,1.1395,1.1395,0,0,0,0,0,1.0779,1.081,1.0824,1.084,1.094,1.1004,1.1017,1.106,1.106,1.1079,1.1124,1.1145,1.1272,1.1258,1.1275,1.1294,1.142,1.1422,1.1424,1.1395,1.1395,1.1395,0,0,0,0,0,0,1.0739,1.082,1.0836,1.0891,1.094,1.1012,1.1036,1.1058,1.1109,1.111,1.1162,1.1179,1.1235,1.1271,1.1253,1.1346,1.1348,1.1353,1.132,1.1321,1.1321,1.1311,1.1278,0,0,0,0,0,1.0737,1.078,1.0849,1.0891,1.0915,1.0971,1.1001,1.103,1.1083,1.1105,1.1153,1.1206,1.1259,1.1292,1.1343,1.14,1.1418,1.1423,1.1423,1.1423,1.1427,1.1462,1.1465,1.1431,1.1431,1.1431,0,0,1.0732,1.0782,1.0806,1.0885,1.0926,1.0972,1.0989,1.1036,1.1072,1.1113,1.1172,1.121,1.1273,1.1332,1.1361,1.1364,1.144,1.1425,1.1424,1.1429,1.1465,1.1468,1.147,1.1433,1.1432,1.1432,0,0,1.0748,1.0789,1.0829,1.087,1.0933,1.0971,1.098,1.105,1.1076,1.1137,1.1169,1.1213,1.1301,1.1345,1.1379,1.1414,1.1437,1.143,1.1431,1.1465,1.1467,1.147,1.1484,1.1488,1.1434,1.1434,1.1433,0,1.0734,1.0803,1.0847,1.0894,1.0928,1.0967,1.101,1.1048,1.1125,1.1149,1.1151,1.1264,1.1309,1.138,1.1389,1.1415,1.1429,1.1421,1.1463,1.1466,1.1469,1.1484,1.1489,1.1432,1.1432,1.1433,1.1433,0,1.0785,1.0833,1.0858,1.093,1.0968,1.1012,1.1065,1.1099,1.1125,1.1163,1.1226,1.1281,1.1346,1.1365,1.1391,1.1441,1.1441,1.1452,1.1456,1.1471,1.1485,1.1491,1.1431,1.1431,1.1431,1.1432,0,0,1.0777,1.0875,1.0883,1.0918,1.0991,1.103,1.1077,1.1139,1.1168,1.122,1.1263,1.1338,1.1349,1.1388,1.142,1.1449,1.1476,1.1458,1.146,1.146,1.1537,1.1528,1.1534,1.1492,1.1493,1.1494,1.1532,0,1.0803,1.0887,1.093,1.0997,1.1043,1.1082,1.1124,1.1175,1.1212,1.1259,1.1302,1.1354,1.1365,1.1388,1.1419,1.1466,1.1492,1.1464,1.1534,1.1536,1.1517,1.1541,1.1531,1.1565,1.1538,1.1539,1.154,0,1.0843,1.0895,1.0967,1.1037,1.1058,1.1094,1.1156,1.1199,1.1259,1.1285,1.1328,1.136,1.1414,1.1414,1.1491,1.147,1.1502,1.153,1.1532,1.154,1.1538,1.1551,1.1576,1.1581,1.1548,1.1548,1.1547,0,1.0832,1.092,1.0974,1.1003,1.1085,1.111,1.1146,1.1205,1.1241,1.1296,1.132,1.1381,1.1414,1.1462,1.151,1.1505,1.1583,1.1586,1.1608,1.1606,1.1622,1.162,1.1653,1.1641,1.1641,1.1641,1.1641,0,1.0856,1.0899,1.0971,1.1004,1.1054,1.1104,1.1153,1.1192,1.1245,1.1289,1.1327,1.1367,1.1428,1.1477,1.1516,1.1575,1.1589,1.1613,1.1623,1.161,1.1607,1.1631,1.1631,1.1642,1.1642,1.1642,1.1642,0,1.0851,1.0901,1.0963,1.1037,1.1057,1.109,1.1155,1.119,1.1231,1.1286,1.1302,1.1366,1.1426,1.1479,1.1559,1.1585,1.1646,1.1657,1.1625,1.163,1.1649,1.1647,1.1699,1.171,1.1689,1.1689,1.169,0,1.0863,1.0897,1.0975,1.1007,1.1042,1.1092,1.1129,1.118,1.1217,1.1289,1.1317,1.138,1.1432,1.1527,1.1582,1.1644,1.1658,1.1672,1.1668,1.1654,1.166,1.1657,1.1662,1.1672,1.1672,1.1672,1.1672,0,1.088,1.0904,1.0954,1.1015,1.1057,1.1107,1.1159,1.1183,1.1245,1.1285,1.1346,1.1387,1.1469,1.1532,1.16,1.164,1.1667,1.1673,1.1682,1.1669,1.1649,1.1661,1.1625,1.1672,1.1672,1.1672,1.1672,1.1672,1.0885,1.0918,1.0978,1.1034,1.1079,1.1126,1.1164,1.1209,1.1261,1.1331,1.1359,1.1422,1.1484,1.1579,1.1619,1.1671,1.1675,1.1687,1.169,1.1692,1.1691,1.1641,1.1683,1.1683,1.1683,1.1683,1.1683,0,1.0905,1.0947,1.0998,1.1068,1.1113,1.1134,1.1193,1.1229,1.1284,1.1339,1.1391,1.1463,1.1525,1.1585,1.165,1.168,1.1695,1.1696,1.1695,1.1704,1.1682,1.1669,1.1683,1.1683,1.1683,1.1683,1.1683,1.1683,1.0921,1.0978,1.1009,1.109,1.1131,1.1192,1.1225,1.127,1.1314,1.1393,1.1444,1.1482,1.1541,1.1611,1.167,1.1686,1.1709,1.1707,1.1727,1.1706,1.1705,1.1704,1.1692,1.1711,1.1711,1.1744,1.1745,1.1745]},{"header":{"parameterUnit":"m.s-1","parameterCategory":1,"la1":30.2991,"la2":30.254,"lo1":-89.0895,"lo2":-89.0444,"dy":0.0017,"dx":0.0017,"nx":28,"ny":28,"refTime":"2024-09-29T09:00:00:Z","depth":0,"parameterNumber":3,"parameterNumberName":"V-component_of_WINDS"},"data":[0,0,0,0,0,0,0,0,0,0,0,0,0,0,0,0,0,0,0,0,0,0,0,0,0,0,0,0,0,0,0,0,0,0,0,0,0,0,0,0,0,0,0,0,0,0,0,0,0,0,0,0,0,0,0,0,0,0,3.36,3.36,0,3.364,3.364,3.3641,3.3666,3.3666,3.3667,3.3667,3.3704,3.3704,3.3705,0,0,0,0,0,0,0,0,0,0,0,0,0,3.354,3.3541,3.36,3.36,3.3601,3.364,3.364,3.3641,3.3666,3.3666,3.3667,3.3667,3.3703,3.3704,3.3705,0,0,0,0,0,0,0,0,0,0,0,0,0,3.3571,3.3541,3.36,3.3618,3.362,3.364,3.364,3.3641,3.3666,3.3666,3.3667,3.3667,3.3703,3.3704,3.3705,3.3708,0,0,3.3709,3.371,0,0,0,0,0,0,0,0,3.357,3.3573,3.3615,3.3617,3.3619,3.3648,3.3633,3.3663,3.3666,3.3649,3.3667,3.3667,3.3685,3.3687,3.3694,3.371,3.3712,3.3709,3.371,3.3711,3.3711,0,0,0,0,0,0,0,3.3567,3.3572,3.3615,3.3615,3.3618,3.3623,3.3628,3.3639,3.3665,3.365,3.3652,3.3657,3.3686,3.3693,3.3695,3.3712,3.3709,3.371,3.3711,3.3712,3.3731,3.3731,0,0,0,0,0,0,3.3563,3.357,3.3614,3.3617,3.3595,3.3624,3.3629,3.3639,3.3665,3.3669,3.3656,3.3658,3.3691,3.3694,3.3697,3.3702,3.3711,3.3712,3.3713,3.3731,3.3731,3.3731,0,0,0,0,0,0,3.3561,3.3567,3.3613,3.3594,3.36,3.3624,3.3635,3.3639,3.3647,3.367,3.3674,3.3659,3.3691,3.3695,3.3705,3.3703,3.3712,3.3714,3.3732,3.3731,3.3731,3.3711,0,0,0,0,0,0,3.356,3.3566,3.3569,3.3594,3.3601,3.3622,3.3635,3.364,3.3649,3.3651,3.3673,3.3677,3.3692,3.3703,3.3707,3.3705,3.3715,3.3732,3.3731,3.3731,3.3712,3.371,3.3709,0,0,0,0,0,3.3557,3.3561,3.3569,3.3574,3.3605,3.3622,3.3626,3.3644,3.3649,3.3651,3.3665,3.3677,3.3703,3.3704,3.3708,3.3707,3.3732,3.3732,3.3731,3.3713,3.3711,3.3709,0,0,0,0,0,0,3.3533,3.3564,3.3574,3.3585,3.3601,3.3626,3.3629,3.3641,3.3654,3.3655,3.3675,3.368,3.3688,3.3698,3.3699,3.371,3.3719,3.3719,3.3704,3.3701,3.37,3.3697,3.3716,0,0,0,0,0,3.353,3.3542,3.3568,3.3576,3.3583,3.3605,3.3613,3.3625,3.3641,3.3648,3.3663,3.3677,3.3688,3.3695,3.3707,3.3714,3.3718,3.3714,3.3713,3.3711,3.3711,3.3714,3.3713,3.3729,3.3729,3.3729,0,0,3.3522,3.354,3.3547,3.3571,3.3585,3.3596,3.361,3.3621,3.3629,3.3649,3.366,3.3671,3.3688,3.3696,3.3701,3.3705,3.3707,3.371,3.3709,3.371,3.3713,3.3712,3.371,3.3729,3.3729,3.3729,0,0,3.3513,3.3529,3.3537,3.355,3.3571,3.3585,3.3586,3.361,3.3619,3.363,3.3645,3.3654,3.3673,3.3684,3.3693,3.3687,3.3697,3.369,3.368,3.3683,3.3682,3.3681,3.3678,3.3677,3.369,3.369,3.369,0,3.35,3.3519,3.3539,3.3549,3.3559,3.3579,3.3586,3.3597,3.362,3.3625,3.363,3.3655,3.3668,3.3678,3.3677,3.3683,3.3685,3.3688,3.3681,3.368,3.3679,3.3677,3.3676,3.3689,3.3689,3.3689,3.3689,0,3.3502,3.3514,3.3518,3.3541,3.3551,3.3559,3.3579,3.3587,3.3598,3.3611,3.3621,3.3637,3.3652,3.3655,3.3666,3.3667,3.3669,3.3677,3.3686,3.3676,3.3674,3.3674,3.3687,3.3688,3.3688,3.3688,0,0,3.348,3.3513,3.3514,3.3524,3.3548,3.3557,3.3566,3.3582,3.3587,3.3602,3.3609,3.3624,3.3632,3.3641,3.3652,3.3655,3.3648,3.3663,3.3663,3.3659,3.365,3.3644,3.3642,3.3655,3.3655,3.3655,3.3648,0,3.3474,3.3493,3.351,3.3522,3.3533,3.3551,3.3558,3.3572,3.3584,3.3594,3.3607,3.3617,3.3627,3.3632,3.3635,3.3649,3.3647,3.3649,3.3661,3.3661,3.3656,3.3642,3.3635,3.3628,3.3648,3.3648,3.3647,0,3.3471,3.3486,3.3498,3.352,3.3525,3.3532,3.3547,3.3557,3.3573,3.3581,3.3591,3.3604,3.3612,3.3619,3.363,3.3631,3.3637,3.3644,3.3644,3.3646,3.3654,3.3642,3.3626,3.3625,3.3647,3.3647,3.3647,0,3.3453,3.3476,3.3486,3.3494,3.352,3.3524,3.3535,3.3551,3.3559,3.3572,3.3577,3.359,3.3597,3.3606,3.3621,3.3625,3.363,3.3639,3.3636,3.3636,3.3637,3.3636,3.3621,3.364,3.364,3.364,3.364,0,3.3445,3.3452,3.3479,3.3485,3.3493,3.3512,3.3519,3.353,3.3545,3.3552,3.3568,3.3575,3.3594,3.3603,3.3614,3.3621,3.3624,3.363,3.3633,3.3629,3.3628,3.3633,3.3633,3.364,3.364,3.364,3.364,0,3.3426,3.3445,3.3457,3.3481,3.3487,3.3491,3.351,3.3516,3.3529,3.3539,3.3542,3.3561,3.3572,3.3588,3.3603,3.3611,3.3615,3.362,3.3611,3.3612,3.3609,3.3609,3.3596,3.3594,3.3615,3.3614,3.3614,0,3.342,3.3426,3.345,3.3457,3.3468,3.3479,3.3487,3.3506,3.3513,3.3531,3.3535,3.3547,3.3558,3.3574,3.3588,3.3599,3.3605,3.3599,3.3606,3.3602,3.3604,3.3604,3.3604,3.3597,3.3597,3.3597,3.3597,0,3.3407,3.3416,3.3428,3.3443,3.3453,3.3466,3.3479,3.3483,3.3504,3.3512,3.3524,3.3532,3.3548,3.3559,3.3572,3.3582,3.3592,3.3594,3.3594,3.359,3.3584,3.3587,3.3606,3.3595,3.3595,3.3595,3.3595,3.3595,3.3394,3.34,3.3418,3.3431,3.3443,3.3455,3.3461,3.3475,3.3486,3.3501,3.351,3.3521,3.3535,3.3555,3.3563,3.3571,3.3575,3.3575,3.3575,3.3575,3.3573,3.3583,3.3573,3.3573,3.3574,3.3574,3.3574,0,3.3382,3.3394,3.3406,3.3424,3.3434,3.3444,3.3459,3.3466,3.3476,3.3489,3.3499,3.3512,3.3523,3.3538,3.3549,3.3553,3.3558,3.3555,3.3555,3.3557,3.3569,3.3568,3.3551,3.3551,3.3551,3.3551,3.3551,3.3551,3.3376,3.3386,3.3397,3.3412,3.3424,3.3436,3.3444,3.3454,3.3464,3.3478,3.3488,3.3498,3.3512,3.3524,3.3534,3.3538,3.3542,3.3537,3.3543,3.3554,3.3556,3.3558,3.3557,3.3538,3.3538,3.353,3.353,3.353]}]]